This is the latest recevied weather packets stored in our database for station/object KE8ZLU. If no packets are shown the sender has not sent any weather packets the latest 10 day(s).
| Time | Temp. | Humidity | Pressure | Rain* | Wind** | Luminosity | Snow |
|---|---|---|---|---|---|---|---|
| 1778272000 | 17.22° C | 38% | 1008.9 hPa | 0 mm | - | 519 W/m² | - |
| 1778271697 | 17.22° C | 38% | 1009 hPa | 0 mm | - | 560 W/m² | - |
| 1778271394 | 17.22° C | 37% | 1009 hPa | 0 mm | - | 492 W/m² | - |
| 1778271091 | 17.78° C | 36% | 1009 hPa | 0 mm | - | 543 W/m² | - |
| 1778270787 | 17.22° C | 36% | 1009.4 hPa | 0 mm | - | 569 W/m² | - |
| 1778270483 | 16.67° C | 40% | 1009.5 hPa | 0 mm | - | 258 W/m² | - |
| 1778270180 | 17.22° C | 38% | 1009.5 hPa | 0 mm | - | 300 W/m² | - |
| 1778269877 | 16.67° C | 37% | 1009.5 hPa | 0 mm | - | 502 W/m² | - |
| 1778269573 | 17.22° C | 38% | 1009.6 hPa | 0 mm | - | 597 W/m² | - |
| 1778269271 | 17.22° C | 42% | 1009.8 hPa | 0 mm | - | 596 W/m² | - |
| 1778268967 | 17.22° C | 37% | 1009.6 hPa | 0 mm | - | 641 W/m² | - |
| 1778268664 | 17.22° C | 40% | 1009.8 hPa | 0 mm | - | 552 W/m² | - |
| 1778268360 | 16.67° C | 37% | 1009.9 hPa | 0 mm | - | 647 W/m² | - |
| 1778268058 | 16.67° C | 38% | 1009.9 hPa | 0 mm | - | 671 W/m² | - |
| 1778267754 | 17.22° C | 42% | 1010.1 hPa | 0 mm | - | 672 W/m² | - |
| 1778267451 | 16.11° C | 39% | 1010.1 hPa | 0 mm | - | 354 W/m² | - |
| 1778267148 | 15.56° C | 40% | 1010.2 hPa | 0 mm | - | 204 W/m² | - |
| 1778266845 | 16.11° C | 39% | 1010.3 hPa | 0 mm | - | 735 W/m² | - |
| 1778266542 | 16.11° C | 39% | 1010.6 hPa | 0 mm | - | 240 W/m² | - |
| 1778266239 | 16.67° C | 40% | 1010.3 hPa | 0 mm | - | 692 W/m² | - |
| 1778265937 | 16.67° C | 39% | 1010.3 hPa | 0 mm | - | 584 W/m² | - |
| 1778265633 | 16.67° C | 37% | 1010.5 hPa | 0 mm | - | 642 W/m² | - |
| 1778265330 | 16.11° C | 40% | 1010.7 hPa | 0 mm | - | 563 W/m² | - |
| 1778265026 | 15.56° C | 41% | 1010.6 hPa | 0 mm | - | 716 W/m² | - |
| 1778264723 | 16.11° C | 39% | 1010.8 hPa | 0 mm | - | 654 W/m² | - |
* Rain latest hour (hover to see other rain measurements)
** Current wind speed in m/s (hover to see current wind gust speed)